Location: Boley
(53.1150°N, 8.2269°W)
Time: 00:27:14
(UTC+00:00)

Cosmos 1606 Rocket - Pass Details

Date: 15 May 2026
Orbit: 595 x 625 km, 82.5° (Epoch: 9 June)

Event Time Altitude Azimuth Distance (km) Brightness Sun altitude
Exits shadow 22:54:11 11° 210° (SSW) 1,890 5.7 -15.0°
Maximum altitude 22:58:14 51° 286° (WNW) 766 4.2 -15.2°
Drops below altitude 10° 23:02:27 10° 3° (N) 1,955 7.2 -15.4°
Sets 23:04:43 0° 8° (N) 2,860 8.1 -15.6°
